Hourly Data Report for September 18, 2017

All times are specified in Local Standard Time (LST). Add 1 hour to adjust for Daylight Saving Time where and when it is observed.

KOUCHIBOUGUAC CS
NEW BRUNSWICK

46°47'00.000" N
65°01'00.000" W
21.00 m
8102328
71670
AKC

Download Data

Hourly Data (September 2017)
Hourly Data Report for September 18, 2017
Temp Definition
°C
Dew Point Temp Definition
°C
Rel Hum Definition
%
Wind Dir Definition
10's deg

Wind Spd Definition
km/h
Visibility Definition
km
Stn Press Definition
kPa
Hmdx Definition


Wind Chill Definition


Weather Definition


TIME
00:00 14.4 13.8 96 0 1   102.05     LegendNANA
01:00 14.4 14.1 98 3 3   102.05     LegendNANA
02:00 14.7 14.4 98 3 2   102.05     LegendNANA
03:00 14.8 14.5 98 7 4   102.02     LegendNANA
04:00 14.7 14.4 98 10 4   102.04     LegendNANA
05:00 14.6 14.3 98 10 6   102.08     LegendNANA
06:00 14.5 14.2 98 9 5   102.14     LegendNANA
07:00 14.5 14.2 98 9 6   102.18     LegendNANA
08:00 14.5 14.1 98 9 6   102.22     LegendNANA
09:00 14.4 14.0 98 9 7   102.26     LegendNANA
10:00 14.8 14.4 98 12 7   102.23     LegendNANA
11:00 15.2 14.8 98 11 4   102.22     LegendNANA
12:00 15.6 15.1 97 14 7   102.22     LegendNANA
13:00 16.0 15.5 97 8 3   102.20     LegendNANA
14:00 15.9 15.4 97 9 4   102.21     LegendNANA
15:00 15.8 15.3 97 5 5   102.19     LegendNANA
16:00 15.7 15.3 98 4 3   102.18     LegendNANA
17:00 15.7 15.4 98 5 4   102.20     LegendNANA
18:00 15.6 15.4 98 4 2   102.24     LegendNANA
19:00 15.5 15.3 99 3 1   102.22     LegendNANA
20:00 15.6 15.4 99 6 1   102.26     LegendNANA
21:00 15.7 15.5 99   0   102.26     LegendNANA
22:00 15.7 15.5 99   0   102.24     LegendNANA
23:00 15.7 15.5 99   0   102.22     LegendNANA

Notes on Data Quality.

Legend

  • E = Estimated
  • M = Missing
  • NA = Not Available
  • ‡ = Partner data that is not subject to review by the National Climate Archives
Date modified: